Time,TemperatureF,DewpointF,PressureIn,WindDirection,WindDirectionDegrees,WindSpeedMPH,WindSpeedGustMPH,Humidity,HourlyPrecipIn,Conditions,Clouds,dailyrainin,SolarRadiationWatts/m^2,SoftwareType,DateUTC
2013-06-17 00:02:00,55.0,43.0,-100.00,NW,309,3.0,10.0,64,0.00,,,0.00,1.000000,,2013-06-17 07:02:00,
2013-06-17 00:11:00,55.0,43.0,-100.00,NW,309,3.0,10.0,64,0.00,,,0.00,1.000000,,2013-06-17 07:11:00,
2013-06-17 00:22:00,55.0,43.0,-100.00,NW,309,3.0,10.0,64,0.00,,,0.00,1.000000,,2013-06-17 07:22:00,
2013-06-17 00:33:00,54.0,44.0,-100.00,NNW,329,7.0,13.0,69,0.00,,,0.00,0.000000,,2013-06-17 07:33:00,
2013-06-17 01:01:00,54.0,44.0,-100.00,NNW,329,7.0,13.0,69,0.00,,,0.00,0.000000,,2013-06-17 08:01:00,
2013-06-17 01:11:00,54.0,44.0,-100.00,NNW,329,7.0,13.0,69,0.00,,,0.00,0.000000,,2013-06-17 08:11:00,
2013-06-17 01:22:00,54.0,44.0,-100.00,NNW,329,7.0,13.0,69,0.00,,,0.00,0.000000,,2013-06-17 08:22:00,
2013-06-17 01:33:00,52.0,45.0,-100.00,NW,306,0.0,10.0,78,0.00,,,0.00,0.000000,,2013-06-17 08:33:00,
2013-06-17 02:02:00,52.0,45.0,-100.00,NW,306,0.0,10.0,78,0.00,,,0.00,0.000000,,2013-06-17 09:02:00,
2013-06-17 02:11:00,52.0,45.0,-100.00,NW,306,0.0,10.0,78,0.00,,,0.00,0.000000,,2013-06-17 09:11:00,
2013-06-17 02:22:00,52.0,45.0,-100.00,NW,306,0.0,10.0,78,0.00,,,0.00,0.000000,,2013-06-17 09:22:00,
2013-06-17 02:33:00,52.0,45.0,-100.00,NW,306,0.0,9.0,78,0.00,,,0.00,0.000000,,2013-06-17 09:33:00,
2013-06-17 03:02:00,52.0,45.0,-100.00,NW,306,0.0,9.0,78,0.00,,,0.00,0.000000,,2013-06-17 10:02:00,
2013-06-17 03:12:00,52.0,45.0,-100.00,NW,306,0.0,9.0,78,0.00,,,0.00,0.000000,,2013-06-17 10:12:00,
2013-06-17 03:22:00,52.0,45.0,-100.00,NW,306,0.0,9.0,78,0.00,,,0.00,0.000000,,2013-06-17 10:22:00,
2013-06-17 03:33:00,51.0,45.0,-100.00,NW,317,4.0,10.0,81,0.00,,,0.00,0.000000,,2013-06-17 10:33:00,
2013-06-17 04:02:00,51.0,45.0,-100.00,NW,317,4.0,10.0,81,0.00,,,0.00,0.000000,,2013-06-17 11:02:00,
2013-06-17 04:11:00,51.0,45.0,-100.00,NW,317,4.0,10.0,81,0.00,,,0.00,0.000000,,2013-06-17 11:11:00,
2013-06-17 04:23:00,51.0,45.0,-100.00,NW,317,4.0,10.0,81,0.00,,,0.00,0.000000,,2013-06-17 11:23:00,
2013-06-17 04:33:00,50.0,45.0,-100.00,NW,313,0.0,11.0,82,0.00,,,0.00,0.000000,,2013-06-17 11:33:00,
2013-06-17 05:02:00,50.0,45.0,-100.00,NW,313,0.0,11.0,82,0.00,,,0.00,0.000000,,2013-06-17 12:02:00,
2013-06-17 05:11:00,50.0,45.0,-100.00,NW,313,0.0,11.0,82,0.00,,,0.00,0.000000,,2013-06-17 12:11:00,
2013-06-17 05:22:00,50.0,45.0,-100.00,NW,313,0.0,11.0,82,0.00,,,0.00,0.000000,,2013-06-17 12:22:00,
2013-06-17 06:01:00,51.0,45.0,-100.00,WNW,302,0.0,0.0,79,0.00,,,0.00,1.000000,,2013-06-17 13:01:00,
2013-06-17 06:11:00,51.0,45.0,-100.00,WNW,302,0.0,0.0,79,0.00,,,0.00,1.000000,,2013-06-17 13:11:00,
2013-06-17 06:22:00,51.0,45.0,-100.00,WNW,302,0.0,0.0,79,0.00,,,0.00,1.000000,,2013-06-17 13:22:00,
2013-06-17 06:32:00,51.0,45.0,-100.00,WNW,302,0.0,0.0,79,0.00,,,0.00,1.000000,,2013-06-17 13:32:00,
2013-06-17 06:33:00,50.0,43.0,-100.00,WNW,300,0.0,0.0,77,0.00,,,0.00,10.000000,,2013-06-17 13:33:00,
2013-06-17 07:02:00,50.0,43.0,-100.00,WNW,300,0.0,0.0,77,0.00,,,0.00,10.000000,,2013-06-17 14:02:00,
2013-06-17 07:11:00,50.0,43.0,-100.00,WNW,300,0.0,0.0,77,0.00,,,0.00,10.000000,,2013-06-17 14:11:00,
2013-06-17 07:22:00,50.0,43.0,-100.00,WNW,300,0.0,0.0,77,0.00,,,0.00,10.000000,,2013-06-17 14:22:00,
2013-06-17 07:33:00,53.0,47.0,-100.00,WNW,291,0.0,0.0,79,0.00,,,0.00,141.000000,,2013-06-17 14:33:00,
2013-06-17 08:01:00,53.0,47.0,-100.00,WNW,291,0.0,0.0,79,0.00,,,0.00,141.000000,,2013-06-17 15:01:00,
2013-06-17 08:12:00,53.0,47.0,-100.00,WNW,291,0.0,0.0,79,0.00,,,0.00,141.000000,,2013-06-17 15:12:00,
2013-06-17 08:22:00,53.0,47.0,-100.00,WNW,291,0.0,0.0,79,0.00,,,0.00,141.000000,,2013-06-17 15:22:00,
2013-06-17 08:33:00,60.0,46.0,-100.00,West,264,0.0,0.0,59,0.00,,,0.00,338.000000,,2013-06-17 15:33:00,
2013-06-17 09:02:00,60.0,46.0,-100.00,West,264,0.0,0.0,59,0.00,,,0.00,338.000000,,2013-06-17 16:02:00,
2013-06-17 09:11:00,60.0,46.0,-100.00,West,264,0.0,0.0,59,0.00,,,0.00,338.000000,,2013-06-17 16:11:00,
2013-06-17 09:22:00,60.0,46.0,-100.00,West,264,0.0,0.0,59,0.00,,,0.00,338.000000,,2013-06-17 16:22:00,
2013-06-17 09:33:00,61.0,46.0,-100.00,West,268,11.0,18.0,58,0.00,,,0.00,525.000000,,2013-06-17 16:33:00,
2013-06-17 09:54:00,61.0,46.0,-100.00,West,268,11.0,18.0,58,0.00,,,0.00,525.000000,,2013-06-17 16:54:00,
2013-06-17 10:02:00,61.0,46.0,-100.00,West,268,11.0,18.0,58,0.00,,,0.00,525.000000,,2013-06-17 17:02:00,
2013-06-17 10:11:00,61.0,46.0,-100.00,West,268,11.0,18.0,58,0.00,,,0.00,525.000000,,2013-06-17 17:11:00,
2013-06-17 10:22:00,61.0,46.0,-100.00,West,268,11.0,18.0,58,0.00,,,0.00,525.000000,,2013-06-17 17:22:00,
2013-06-17 10:33:00,64.0,47.0,-100.00,WSW,243,10.0,24.0,54,0.00,,,0.00,697.000000,,2013-06-17 17:33:00,
2013-06-17 11:02:00,64.0,47.0,-100.00,WSW,243,10.0,24.0,54,0.00,,,0.00,697.000000,,2013-06-17 18:02:00,
2013-06-17 11:12:00,64.0,47.0,-100.00,WSW,243,10.0,24.0,54,0.00,,,0.00,697.000000,,2013-06-17 18:12:00,
2013-06-17 11:23:00,64.0,47.0,-100.00,WSW,243,10.0,24.0,54,0.00,,,0.00,697.000000,,2013-06-17 18:23:00,
2013-06-17 11:33:00,63.0,49.0,-100.00,West,263,0.0,30.0,61,0.00,,,0.00,838.000000,,2013-06-17 18:33:00,
2013-06-17 11:53:00,63.0,49.0,-100.00,West,263,0.0,30.0,61,0.00,,,0.00,838.000000,,2013-06-17 18:53:00,
2013-06-17 12:02:00,63.0,49.0,-100.00,West,263,0.0,30.0,61,0.00,,,0.00,838.000000,,2013-06-17 19:02:00,
2013-06-17 12:11:00,63.0,49.0,-100.00,West,263,0.0,30.0,61,0.00,,,0.00,838.000000,,2013-06-17 19:11:00,
2013-06-17 12:22:00,63.0,49.0,-100.00,West,263,0.0,30.0,61,0.00,,,0.00,838.000000,,2013-06-17 19:22:00,
2013-06-17 12:33:00,64.0,50.0,-100.00,WSW,255,0.0,0.0,61,0.00,,,0.00,935.000000,,2013-06-17 19:33:00,
2013-06-17 12:54:00,64.0,50.0,-100.00,WSW,255,0.0,0.0,61,0.00,,,0.00,935.000000,,2013-06-17 19:54:00,
2013-06-17 13:02:00,64.0,50.0,-100.00,WSW,255,0.0,0.0,61,0.00,,,0.00,935.000000,,2013-06-17 20:02:00,
2013-06-17 13:11:00,64.0,50.0,-100.00,WSW,255,0.0,0.0,61,0.00,,,0.00,935.000000,,2013-06-17 20:11:00,
2013-06-17 13:22:00,64.0,50.0,-100.00,WSW,255,0.0,0.0,61,0.00,,,0.00,935.000000,,2013-06-17 20:22:00,
2013-06-17 13:33:00,63.0,50.0,-100.00,West,267,17.0,38.0,63,0.00,,,0.00,979.000000,,2013-06-17 20:33:00,
2013-06-17 14:01:00,63.0,50.0,-100.00,West,267,17.0,38.0,63,0.00,,,0.00,979.000000,,2013-06-17 21:01:00,
2013-06-17 14:12:00,63.0,50.0,-100.00,West,267,17.0,38.0,63,0.00,,,0.00,979.000000,,2013-06-17 21:12:00,
2013-06-17 14:22:00,63.0,50.0,-100.00,West,267,17.0,38.0,63,0.00,,,0.00,979.000000,,2013-06-17 21:22:00,
2013-06-17 16:02:00,63.0,51.0,-100.00,West,271,6.0,36.0,64,0.00,,,0.00,907.000000,,2013-06-17 23:02:00,
2013-06-17 16:11:00,63.0,51.0,-100.00,West,271,6.0,36.0,64,0.00,,,0.00,907.000000,,2013-06-17 23:11:00,
2013-06-17 16:22:00,63.0,51.0,-100.00,West,271,6.0,36.0,64,0.00,,,0.00,907.000000,,2013-06-17 23:22:00,
2013-06-17 16:32:00,63.0,51.0,-100.00,West,271,6.0,36.0,64,0.00,,,0.00,907.000000,,2013-06-17 23:32:00,
2013-06-17 16:53:00,62.0,51.0,-100.00,West,268,0.0,0.0,66,0.00,,,0.00,794.000000,,2013-06-17 23:53:00,
2013-06-17 17:01:00,62.0,51.0,-100.00,West,268,0.0,0.0,66,0.00,,,0.00,794.000000,,2013-06-18 00:01:00,
2013-06-17 17:12:00,62.0,51.0,-100.00,West,268,0.0,0.0,66,0.00,,,0.00,794.000000,,2013-06-18 00:12:00,
2013-06-17 17:22:00,62.0,51.0,-100.00,West,268,0.0,0.0,66,0.00,,,0.00,794.000000,,2013-06-18 00:22:00,
2013-06-17 17:32:00,62.0,51.0,-100.00,West,268,0.0,0.0,66,0.00,,,0.00,794.000000,,2013-06-18 00:32:00,
2013-06-17 17:33:00,61.0,51.0,-100.00,West,273,0.0,0.0,70,0.00,,,0.00,640.000000,,2013-06-18 00:33:00,
2013-06-17 18:01:00,61.0,51.0,-100.00,West,273,0.0,0.0,70,0.00,,,0.00,640.000000,,2013-06-18 01:01:00,
2013-06-17 18:11:00,61.0,51.0,-100.00,West,273,0.0,0.0,70,0.00,,,0.00,640.000000,,2013-06-18 01:11:00,
2013-06-17 18:23:00,61.0,51.0,-100.00,West,273,0.0,0.0,70,0.00,,,0.00,640.000000,,2013-06-18 01:23:00,
2013-06-17 18:33:00,58.0,50.0,-100.00,West,268,0.0,0.0,75,0.00,,,0.00,463.000000,,2013-06-18 01:33:00,
2013-06-17 19:02:00,58.0,50.0,-100.00,West,268,0.0,0.0,75,0.00,,,0.00,463.000000,,2013-06-18 02:02:00,
2013-06-17 19:11:00,58.0,50.0,-100.00,West,268,0.0,0.0,75,0.00,,,0.00,463.000000,,2013-06-18 02:11:00,
2013-06-17 19:22:00,58.0,50.0,-100.00,West,268,0.0,0.0,75,0.00,,,0.00,463.000000,,2013-06-18 02:22:00,
2013-06-17 19:33:00,55.0,51.0,-100.00,West,268,22.0,37.0,85,0.00,,,0.00,207.000000,,2013-06-18 02:33:00,
2013-06-17 19:53:00,55.0,51.0,-100.00,West,268,22.0,37.0,85,0.00,,,0.00,207.000000,,2013-06-18 02:53:00,
2013-06-17 20:02:00,55.0,51.0,-100.00,West,268,22.0,37.0,85,0.00,,,0.00,207.000000,,2013-06-18 03:02:00,
2013-06-17 20:12:00,55.0,51.0,-100.00,West,268,22.0,37.0,85,0.00,,,0.00,207.000000,,2013-06-18 03:12:00,
2013-06-17 20:23:00,55.0,51.0,-100.00,West,268,22.0,37.0,85,0.00,,,0.00,207.000000,,2013-06-18 03:23:00,
2013-06-17 20:33:00,56.0,50.0,-100.00,West,276,0.0,35.0,81,0.00,,,0.00,22.000000,,2013-06-18 03:33:00,
2013-06-17 20:53:00,56.0,50.0,-100.00,West,276,0.0,35.0,81,0.00,,,0.00,22.000000,,2013-06-18 03:53:00,
2013-06-17 21:01:00,56.0,50.0,-100.00,West,276,0.0,35.0,81,0.00,,,0.00,22.000000,,2013-06-18 04:01:00,
2013-06-17 21:11:00,56.0,50.0,-100.00,West,276,0.0,35.0,81,0.00,,,0.00,22.000000,,2013-06-18 04:11:00,
2013-06-17 21:22:00,56.0,50.0,-100.00,West,276,0.0,35.0,81,0.00,,,0.00,22.000000,,2013-06-18 04:22:00,
2013-06-17 21:33:00,55.0,50.0,-100.00,West,269,0.0,0.0,82,0.00,,,0.00,2.000000,,2013-06-18 04:33:00,
2013-06-17 22:02:00,55.0,50.0,-100.00,West,269,0.0,0.0,82,0.00,,,0.00,2.000000,,2013-06-18 05:02:00,
2013-06-17 22:12:00,55.0,50.0,-100.00,West,269,0.0,0.0,82,0.00,,,0.00,2.000000,,2013-06-18 05:12:00,
2013-06-17 22:22:00,55.0,50.0,-100.00,West,269,0.0,0.0,82,0.00,,,0.00,2.000000,,2013-06-18 05:22:00,
2013-06-17 23:02:00,54.0,50.0,-100.00,West,262,0.0,0.0,86,0.00,,,0.00,0.000000,,2013-06-18 06:02:00,
2013-06-17 23:11:00,54.0,50.0,-100.00,West,262,0.0,0.0,86,0.00,,,0.00,0.000000,,2013-06-18 06:11:00,
2013-06-17 23:23:00,54.0,50.0,-100.00,West,262,0.0,0.0,86,0.00,,,0.00,0.000000,,2013-06-18 06:23:00,
2013-06-17 23:32:00,54.0,50.0,-100.00,West,262,0.0,0.0,86,0.00,,,0.00,0.000000,,2013-06-18 06:32:00,
2013-06-17 23:33:00,52.0,50.0,-100.00,West,273,0.0,0.0,93,0.00,,,0.00,0.000000,,2013-06-18 06:33:00,